When you browse on this site, cookies collect data to enhance your experience and personalize the content and advertising you see.
Visit our Privacy Policy to learn more. By continuing to use the site, you agree to this use of cookies and data.
  • In Hungary
  • List of Countries
  • For 7 days
  • Water Temperature
  • Weather Map
  • News
  • Weather Widgets
  • user-avatar
    Login

    Hourly Weather Zhelezovo

    Today, 19 September, Thursday

    Time Temperature Precipitation Wind Pressure Humidity
    00:00 +5°C° 0 mm 2 mps 749 mmHg 97%
    01:00 +5°C° 0 mm 2 mps 749 mmHg 97%
    02:00 +5°C° 0 mm 2 mps 750 mmHg 97%
    03:00 +4°C° 0 mm 2 mps 750 mmHg 97%
    04:00 +5°C° 0 mm 1 mps 751 mmHg 96%
    05:00 +5°C° 0 mm 1 mps 751 mmHg 96%
    06:00 +5°C° 0 mm 1 mps 751 mmHg 95%
    07:00 +6°C° 0 mm 1 mps 752 mmHg 94%
    08:00 +7°C° 0 mm 1 mps 752 mmHg 92%
    09:00 +8°C° 0.1 mm 1 mps 752 mmHg 88%
    10:00 +9°C° 0.1 mm 1 mps 753 mmHg 83%
    11:00 +10°C° 0.1 mm 1 mps 753 mmHg 78%
    12:00 +10°C° 0.2 mm 1 mps 753 mmHg 75%
    13:00 +9°C° 0.2 mm 2 mps 753 mmHg 72%
    14:00 +10°C° 0.2 mm 2 mps 753 mmHg 69%
    15:00 +10°C° 0.1 mm 2 mps 753 mmHg 71%
    16:00 +10°C° 0.1 mm 1 mps 753 mmHg 73%
    17:00 +10°C° 0.1 mm 1 mps 753 mmHg 75%
    18:00 +8°C° 0 mm 1 mps 753 mmHg 79%
    19:00 +7°C° 0 mm 1 mps 753 mmHg 83%
    20:00 +4°C° 0 mm 0 mps 753 mmHg 87%
    21:00 +4°C° 0 mm 0 mps 753 mmHg 88%
    22:00 +4°C° 0 mm 0 mps 753 mmHg 88%
    23:00 +3°C° 0 mm 0 mps 753 mmHg 88%

    Tomorrow, 20 September, Friday

    Time Temperature Precipitation Wind Pressure Humidity
    00:00 +3°C° 0 mm 0 mps 753 mmHg 88%
    01:00 +4°C° 0 mm 1 mps 754 mmHg 87%
    02:00 +5°C° 0 mm 1 mps 754 mmHg 87%
    03:00 +4°C° 0 mm 1 mps 754 mmHg 88%
    04:00 +4°C° 0 mm 1 mps 754 mmHg 90%
    05:00 +4°C° 0 mm 1 mps 754 mmHg 91%
    06:00 +4°C° 0 mm 2 mps 754 mmHg 89%
    07:00 +4°C° 0 mm 3 mps 754 mmHg 86%
    08:00 +5°C° 0 mm 4 mps 755 mmHg 84%
    09:00 +5°C° 0 mm 4 mps 755 mmHg 78%
    10:00 +6°C° 0 mm 4 mps 755 mmHg 71%
    11:00 +7°C° 0 mm 4 mps 756 mmHg 64%
    12:00 +8°C° 0.1 mm 4 mps 756 mmHg 62%
    13:00 +8°C° 0.1 mm 4 mps 756 mmHg 59%
    14:00 +8°C° 0.1 mm 5 mps 755 mmHg 56%
    15:00 +8°C° 0 mm 4 mps 755 mmHg 59%
    16:00 +8°C° 0 mm 3 mps 755 mmHg 61%
    17:00 +8°C° 0 mm 2 mps 755 mmHg 64%
    18:00 +7°C° 0 mm 2 mps 756 mmHg 66%
    19:00 +5°C° 0 mm 2 mps 756 mmHg 68%
    20:00 +4°C° 0 mm 2 mps 756 mmHg 70%
    21:00 +4°C° 0 mm 2 mps 756 mmHg 70%
    22:00 +5°C° 0 mm 1 mps 756 mmHg 70%
    23:00 +5°C° 0 mm 1 mps 756 mmHg 70%

    Day after tomorrow, 21 September, Saturday

    Time Temperature Precipitation Wind Pressure Humidity
    00:00 +4°C° 0.1 mm 2 mps 755 mmHg 73%
    01:00 +4°C° 0.1 mm 2 mps 755 mmHg 77%
    02:00 +4°C° 0.1 mm 2 mps 754 mmHg 80%
    03:00 +4°C° 0.1 mm 3 mps 754 mmHg 83%
    04:00 +4°C° 0.1 mm 4 mps 753 mmHg 86%
    05:00 +4°C° 0.1 mm 4 mps 752 mmHg 89%
    06:00 +5°C° 0.9 mm 4 mps 751 mmHg 91%
    07:00 +5°C° 0.9 mm 4 mps 751 mmHg 93%
    08:00 +5°C° 0.9 mm 4 mps 750 mmHg 96%
    09:00 +6°C° 0.5 mm 4 mps 750 mmHg 96%
    10:00 +8°C° 0.5 mm 3 mps 749 mmHg 96%
    11:00 +8°C° 0.5 mm 3 mps 749 mmHg 96%
    12:00 +9°C° 0.3 mm 3 mps 749 mmHg 96%
    13:00 +10°C° 0.3 mm 3 mps 749 mmHg 96%
    14:00 +11°C° 0.3 mm 3 mps 749 mmHg 95%
    15:00 +11°C° 0.3 mm 4 mps 748 mmHg 95%
    16:00 +11°C° 0.3 mm 4 mps 748 mmHg 94%
    17:00 +11°C° 0.3 mm 4 mps 748 mmHg 94%
    18:00 +10°C° 0.2 mm 5 mps 748 mmHg 94%
    19:00 +10°C° 0.2 mm 5 mps 748 mmHg 93%
    20:00 +10°C° 0.2 mm 5 mps 748 mmHg 93%
    21:00 +10°C° 0.2 mm 5 mps 748 mmHg 92%
    22:00 +10°C° 0.2 mm 5 mps 748 mmHg 92%
    23:00 +10°C° 0.2 mm 5 mps 748 mmHg 92%

    22 September, Sunday

    Time Temperature Precipitation Wind Pressure Humidity
    00:00 +10°C° 0.2 mm 5 mps 748 mmHg 92%
    01:00 +10°C° 0.2 mm 5 mps 748 mmHg 92%
    02:00 +10°C° 0.2 mm 5 mps 748 mmHg 92%
    03:00 +9°C° 0.1 mm 5 mps 748 mmHg 91%
    04:00 +8°C° 0.1 mm 5 mps 748 mmHg 89%
    05:00 +7°C° 0.1 mm 6 mps 749 mmHg 88%
    06:00 +7°C° 0.1 mm 6 mps 750 mmHg 86%
    07:00 +6°C° 0.1 mm 5 mps 751 mmHg 84%
    08:00 +5°C° 0.1 mm 5 mps 752 mmHg 82%
    09:00 +6°C° 0.1 mm 5 mps 752 mmHg 76%
    10:00 +7°C° 0.1 mm 5 mps 753 mmHg 70%
    11:00 +8°C° 0.1 mm 5 mps 754 mmHg 63%
    12:00 +8°C° 0 mm 5 mps 754 mmHg 59%
    13:00 +9°C° 0 mm 5 mps 755 mmHg 56%
    14:00 +9°C° 0 mm 5 mps 755 mmHg 52%
    15:00 +8°C° 0 mm 4 mps 755 mmHg 56%
    16:00 +9°C° 0 mm 3 mps 755 mmHg 60%
    17:00 +8°C° 0 mm 3 mps 756 mmHg 64%
    18:00 +7°C° 0 mm 3 mps 756 mmHg 68%
    19:00 +5°C° 0 mm 2 mps 756 mmHg 72%
    20:00 +4°C° 0 mm 2 mps 757 mmHg 76%
    21:00 +4°C° 0 mm 1 mps 757 mmHg 78%
    22:00 +4°C° 0 mm 1 mps 757 mmHg 79%
    23:00 +2°C° 0 mm 0 mps 757 mmHg 80%

    23 September, Monday

    Time Temperature Precipitation Wind Pressure Humidity
    00:00 +4°C° 0 mm 1 mps 757 mmHg 79%
    01:00 +4°C° 0 mm 1 mps 758 mmHg 78%
    02:00 +4°C° 0 mm 1 mps 758 mmHg 77%
    03:00 +4°C° 0 mm 1 mps 757 mmHg 78%
    04:00 +4°C° 0 mm 1 mps 757 mmHg 78%
    05:00 +3°C° 0 mm 1 mps 757 mmHg 79%
    06:00 +4°C° 0 mm 1 mps 757 mmHg 76%
    07:00 +5°C° 0 mm 1 mps 757 mmHg 73%
    08:00 +6°C° 0 mm 1 mps 756 mmHg 70%
    09:00 +6°C° 0 mm 2 mps 756 mmHg 67%
    10:00 +7°C° 0 mm 2 mps 756 mmHg 64%
    11:00 +8°C° 0 mm 2 mps 755 mmHg 61%
    12:00 +8°C° 0 mm 3 mps 755 mmHg 61%
    13:00 +9°C° 0 mm 3 mps 754 mmHg 60%
    14:00 +9°C° 0 mm 3 mps 753 mmHg 60%
    15:00 +7°C° 0.1 mm 4 mps 753 mmHg 65%
    16:00 +6°C° 0.1 mm 4 mps 752 mmHg 70%
    17:00 +5°C° 0.1 mm 4 mps 752 mmHg 76%
    18:00 +5°C° 0.3 mm 4 mps 751 mmHg 81%
    19:00 +4°C° 0.3 mm 4 mps 751 mmHg 85%
    20:00 +2°C° 0.3 mm 5 mps 751 mmHg 90%
    21:00 +3°C° 0.6 mm 4 mps 751 mmHg 91%
    22:00 +3°C° 0.6 mm 4 mps 750 mmHg 93%
    23:00 +3°C° 0.6 mm 4 mps 750 mmHg 94%

    24 September, Tuesday

    Time Temperature Precipitation Wind Pressure Humidity
    00:00 +3°C° 0.5 mm 4 mps 750 mmHg 94%
    01:00 +3°C° 0.5 mm 4 mps 750 mmHg 95%
    02:00 +3°C° 0.5 mm 4 mps 749 mmHg 95%
    03:00 +3°C° 0.2 mm 4 mps 749 mmHg 95%
    04:00 +3°C° 0.2 mm 3 mps 749 mmHg 95%
    05:00 +3°C° 0.2 mm 3 mps 749 mmHg 95%
    06:00 +3°C° 0.1 mm 3 mps 749 mmHg 95%
    07:00 +4°C° 0.1 mm 3 mps 749 mmHg 95%
    08:00 +4°C° 0.1 mm 3 mps 749 mmHg 94%
    09:00 +4°C° 0.1 mm 3 mps 750 mmHg 94%
    10:00 +4°C° 0.1 mm 3 mps 750 mmHg 93%
    11:00 +4°C° 0.1 mm 3 mps 750 mmHg 92%
    12:00 +4°C° 0 mm 3 mps 750 mmHg 92%
    13:00 +4°C° 0 mm 3 mps 750 mmHg 92%
    14:00 +4°C° 0 mm 3 mps 750 mmHg 91%
    15:00 +5°C° 0 mm 3 mps 750 mmHg 91%
    16:00 +6°C° 0 mm 2 mps 750 mmHg 90%
    17:00 +6°C° 0 mm 2 mps 750 mmHg 89%
    18:00 +6°C° 0 mm 2 mps 751 mmHg 90%
    19:00 +5°C° 0 mm 2 mps 751 mmHg 90%
    20:00 +5°C° 0 mm 2 mps 751 mmHg 91%
    21:00 +5°C° 0 mm 2 mps 751 mmHg 92%
    22:00 +4°C° 0 mm 2 mps 751 mmHg 93%
    23:00 +4°C° 0 mm 2 mps 751 mmHg 94%
    Show more